Вернуться в каталог

STARLINK-6073

АктивенСвязьVLEO
NORAD 56807·PAYLOAD·🇺🇸 United States

Запущен May 31, 2023 с Vandenberg Space Force Base

Loading…

Ближайшие Пролёты (ближайшие 24 часа)

TLE

СвежийSource: CelesTrak SupGP

Эпоха: Sep 15, 2026, 01:33 UTC

1 56807C 23078AS  26258.06506944 -.00029388  00000+0 -24631-2 0  2580
2 56807  70.0015 206.7978 0002906 270.7482 115.7239 14.98342428    11

Отслеживайте STARLINK-6073 в реальном времени с AllMySat

Download on the App Store